Location: Unspecified
(0.0000°N, 0.0000°E)
Time: 19:47:05
(UTC+00:00)

Explorer 11/Cluster Stage 4 - All Passes

Search period start: 14 July 2020 00:00
Search period end: 24 July 2020 00:00
Orbit: 467 x 1259 km, 28.8° (Epoch: 13 July)

Date Brightness Start Highest point End Pass type
(mag) Time Alt. Az. Time Alt. Az. Time Alt. Az.
14 Jul - 05:25:46 10° SSW 05:28:49 25° SSE 05:31:54 10° E visible
14 Jul - 07:13:35 10° W 07:16:58 34° NNW 07:20:42 10° NE daylight
14 Jul - 14:37:36 10° NNE 14:38:32 10° NNE 14:39:28 10° NNE daylight
14 Jul - 16:21:47 10° NNW 16:28:39 32° NNE 16:35:46 10° E daylight
14 Jul - 18:10:00 10° WNW 18:18:17 89° SSW 18:26:14 10° ESE daylight
14 Jul - 20:00:54 10° W 20:07:45 30° SSW 20:13:59 10° SSE visible
15 Jul - 05:14:50 10° SW 05:18:12 33° SSE 05:21:32 10° E visible
15 Jul - 07:03:18 10° W 07:06:22 25° NNW 07:09:39 10° NNE daylight
15 Jul - 14:25:30 10° N 14:27:49 12° NNE 14:30:14 10° NE daylight
15 Jul - 16:10:41 10° NW 16:17:43 37° NNE 16:25:09 10° E daylight
15 Jul - 17:59:04 10° WNW 18:07:17 78° SSW 18:15:19 10° SE daylight
15 Jul - 19:50:19 10° W 19:56:51 26° SSW 20:02:56 10° SSE visible
16 Jul - 05:03:58 10° SW 05:07:36 46° SSE 05:11:04 10° ENE visible
16 Jul - 06:53:08 10° WNW 06:55:46 19° NNW 06:58:31 10° NNE daylight
16 Jul - 14:14:00 10° N 14:17:05 13° NNE 14:20:21 10° NE daylight
16 Jul - 15:59:39 10° NW 16:06:46 42° NNE 16:14:27 10° E daylight
16 Jul - 17:48:13 10° WNW 17:56:17 67° SSW 18:04:22 10° SE daylight
16 Jul - 19:39:49 10° WSW 19:45:58 23° SSW 19:51:48 10° SSE visible
17 Jul - 03:07:25 10° S 03:08:23 11° SSE 03:09:19 10° SE night (unlit)
17 Jul - 04:53:09 10° SW 04:56:59 66° SSE 05:00:33 10° ENE visible
17 Jul - 06:43:08 10° WNW 06:45:10 14° NNW 06:47:14 10° N daylight
17 Jul - 14:02:41 10° N 14:06:20 15° NNE 14:10:14 10° ENE daylight
17 Jul - 15:48:40 10° NW 15:55:48 48° NNE 16:03:41 10° ESE daylight
17 Jul - 17:37:26 10° WNW 17:45:17 58° SSW 17:53:21 10° SE daylight
17 Jul - 19:29:26 10° WSW 19:35:08 20° SSW 19:40:37 10° SSE visible
18 Jul - 02:55:20 10° S 02:57:49 14° SSE 03:00:06 10° ESE night (unlit)
18 Jul - 04:42:22 10° WSW 04:46:21 88° NW 04:49:59 10° ENE visible
18 Jul - 06:33:40 10° NW 06:34:33 11° NNW 06:35:28 10° NNW daylight
18 Jul - 13:51:30 10° N 13:55:33 17° NNE 13:59:58 10° ENE daylight
18 Jul - 15:37:45 10° NW 15:44:50 56° NNE 15:52:50 10° ESE daylight
18 Jul - 17:26:44 10° WNW 17:34:19 50° SSW 17:42:16 10° SE daylight
18 Jul - 19:19:10 10° WSW 19:24:19 18° SSW 19:29:22 10° SSE visible
19 Jul - 02:43:50 10° SSW 02:47:14 19° SSE 02:50:15 10° ESE night (unlit)
19 Jul - 04:31:39 10° WSW 04:35:43 64° NNW 04:39:20 10° NE visible
19 Jul - 13:40:24 10° NNW 13:44:43 19° NNE 13:49:35 10° ENE daylight
19 Jul - 15:26:53 10° NW 15:33:52 65° NNE 15:41:57 10° ESE daylight
19 Jul - 17:16:06 10° W 17:23:23 43° SSW 17:31:08 10° SE daylight
19 Jul - 19:09:01 10° WSW 19:13:33 16° SSW 19:18:00 10° S visible
20 Jul - 02:32:30 10° SSW 02:36:39 25° SSE 02:40:10 10° E night (unlit)
20 Jul - 04:20:57 10° WSW 04:25:05 47° NNW 04:28:40 10° NE visible
20 Jul - 13:29:22 10° NNW 13:33:55 21° NNE 13:39:07 10° ENE daylight
20 Jul - 15:16:06 10° NW 15:22:55 76° NNE 15:30:59 10° ESE daylight
20 Jul - 17:05:33 10° W 17:12:29 37° SSW 17:19:56 10° SE daylight
20 Jul - 18:59:03 10° SW 19:02:48 14° SSW 19:06:32 10° S visible
21 Jul - 02:21:17 10° SW 02:26:02 33° SSE 02:29:57 10° E night (unlit)
21 Jul - 04:10:19 10° W 04:14:24 36° NNW 04:17:55 10° NE visible
21 Jul - 13:18:23 10° NNW 13:23:05 24° NNE 13:28:33 10° E daylight
21 Jul - 15:05:21 10° WNW 15:11:59 88° NNE 15:19:58 10° ESE daylight
21 Jul - 16:55:06 10° W 17:01:36 31° SSW 17:08:41 10° SSE daylight
21 Jul - 18:49:20 10° SW 18:52:05 12° SSW 18:54:51 10° S visible
22 Jul - 00:23:14 10° S 00:25:57 13° SSE 00:28:26 10° SE night (unlit)
22 Jul - 02:10:07 10° SW 02:15:23 43° SSE 02:19:38 10° E night (unlit)
22 Jul - 03:59:43 10° W 04:03:42 29° NNW 04:07:08 10° NNE visible
22 Jul - 13:07:29 10° NNW 13:12:15 27° NNE 13:17:56 10° E daylight
22 Jul - 14:54:40 10° WNW 15:01:05 79° SSW 15:08:53 10° SE daylight
22 Jul - 16:44:45 10° W 16:50:46 27° SSW 16:57:22 10° SSE daylight
22 Jul - 18:40:23 10° SSW 18:41:25 10° SSW 18:42:27 10° S visible
23 Jul - 00:11:23 10° SSW 00:15:20 16° SSE 00:18:51 10° ESE night (unlit)
23 Jul - 01:59:00 10° SW 02:04:43 57° SSE 02:09:14 10° ENE night (unlit)
23 Jul - 03:49:11 10° W 03:53:00 23° NNW 03:56:18 10° NNE visible
23 Jul - 12:56:37 10° NNW 13:01:25 32° NNE 13:07:14 10° E daylight
23 Jul - 14:44:04 10° WNW 14:50:13 66° SSW 14:57:46 10° SE daylight
23 Jul - 16:34:31 10° WSW 16:39:59 23° SSW 16:45:59 10° SSE daylight
